TimePST,TemperatureF,Dew PointF,Humidity,Sea Level PressureIn,VisibilityMPH,Wind Direction,Wind SpeedMPH,Gust SpeedMPH,PrecipitationIn,Events,Conditions,WindDirDegrees,DateUTC
12:58 AM,41.7,19.2,41,30.09,10.0,North,4.6,-,N/A,,Clear,360,2013-02-23 08:58:00
1:58 AM,36.7,18.1,47,30.06,10.0,Calm,Calm,-,N/A,,Clear,0,2013-02-23 09:58:00
2:58 AM,36.9,18.3,47,30.04,10.0,East,2.3,-,N/A,,Clear,90,2013-02-23 10:58:00
3:58 AM,39.0,18.9,44,30.02,10.0,ENE,6.9,-,N/A,,Clear,70,2013-02-23 11:58:00
4:58 AM,39.7,19.8,45,30.00,10.0,East,5.8,-,N/A,,Clear,90,2013-02-23 12:58:00
5:58 AM,40.3,20.1,45,29.97,10.0,ENE,9.2,-,N/A,,Clear,60,2013-02-23 13:58:00
6:58 AM,42.3,21.4,43,29.97,10.0,NE,9.2,-,N/A,,Clear,50,2013-02-23 14:58:00
7:58 AM,44.1,21.0,40,29.97,10.0,NE,6.9,-,N/A,,Clear,50,2013-02-23 15:58:00
8:58 AM,43.7,21.6,41,29.96,10.0,South,1.2,-,N/A,,Clear,170,2013-02-23 16:58:00
9:58 AM,49.3,21.7,34,29.90,10.0,NNE,9.2,-,N/A,,Clear,30,2013-02-23 17:58:00
10:58 AM,54.3,21.4,28,29.86,10.0,North,4.6,-,N/A,,Clear,360,2013-02-23 18:58:00
11:58 AM,57.2,21.9,26,29.89,10.0,NE,12.7,-,N/A,,Clear,50,2013-02-23 19:58:00
12:58 PM,59.2,21.7,24,29.87,10.0,NE,13.8,-,N/A,,Clear,40,2013-02-23 20:58:00
1:58 PM,58.1,24.6,28,29.87,10.0,NE,25.3,-,N/A,,Clear,40,2013-02-23 21:58:00
2:58 PM,56.7,23.4,28,29.87,10.0,NE,21.9,26.5,N/A,,Overcast,50,2013-02-23 22:58:00
3:58 PM,54.7,20.5,26,29.88,10.0,NE,8.1,24.2,N/A,,Overcast,40,2013-02-23 23:58:00
4:58 PM,53.6,18.9,26,29.88,10.0,Calm,Calm,-,N/A,,Overcast,0,2013-02-24 00:58:00
5:58 PM,54.1,16.3,23,29.91,10.0,NNE,4.6,19.6,N/A,,Overcast,30,2013-02-24 01:58:00
6:58 PM,52.5,8.8,17,29.94,10.0,NNE,25.3,-,N/A,,Overcast,30,2013-02-24 02:58:00
7:58 PM,51.1,9.1,19,29.99,10.0,Calm,Calm,-,N/A,,Clear,0,2013-02-24 03:58:00
8:58 PM,48.9,6.8,18,30.04,10.0,Calm,Calm,-,N/A,,Clear,0,2013-02-24 04:58:00
9:58 PM,47.1,5.7,18,30.07,10.0,Calm,Calm,-,N/A,,Clear,0,2013-02-24 05:58:00
10:58 PM,44.1,5.5,21,30.09,10.0,Calm,Calm,-,N/A,,Clear,0,2013-02-24 06:58:00
11:58 PM,43.5,5.0,20,30.10,10.0,Calm,Calm,-,N/A,,Clear,0,2013-02-24 07:58:00